EJU34UF LEIB-LIMC

Flight info

Callsign EJU34UF
Flight time 1h 37m
Altitude 30000
Route KABRE DCT ELTAN DCT MHN DCT MEROS DCT LAPIT DCT CHELY DCT LUMAS DCT NIBIK DCT NETUP DCT STP DCT RAPED DCT PIGOS DCT EKSID DCT NOSTA DCT EGHIN DCT ANAKI P860 DEVOX
Aircraft A320/M-SDE2E3FGHIJ1RWXY/LB1

Departure

Time 2026-05-01 08:12
Airport Ibiza Airport (LEIB)

Arrival

Time 2026-05-01 09:50
Airport Milan Malpensa International Airport (LIMC)
Time Latitude Longitude Altitude Speed Heading
2026-05-01 07:53 38.87491 1.36735 8 ft 0 kts 18°
2026-05-01 08:07 38.87463 1.36759 8 ft 6 kts 155°
2026-05-01 08:07 38.87330 1.36845 9 ft 13 kts 153°
2026-05-01 08:08 38.87259 1.36800 10 ft 15 kts 242°
2026-05-01 08:08 38.87138 1.36501 8 ft 22 kts 242°
2026-05-01 08:09 38.86981 1.36123 8 ft 21 kts 242°
2026-05-01 08:09 38.86919 1.35973 8 ft 18 kts 242°
2026-05-01 08:09 38.86873 1.35862 8 ft 12 kts 242°
2026-05-01 08:10 38.86810 1.35759 8 ft 5 kts 185°
2026-05-01 08:10 38.86779 1.35775 8 ft 0 kts 152°
2026-05-01 08:11 38.86776 1.35777 8 ft 4 kts 152°
2026-05-01 08:11 38.86719 1.35942 6 ft 9 kts 82°
2026-05-01 08:12 38.86997 1.36615 7 ft 106 kts 62°
2026-05-01 08:12 38.87439 1.37682 48 ft 155 kts 61°
2026-05-01 08:12 38.88318 1.40122 1382 ft 157 kts 73°
2026-05-01 08:13 38.88568 1.41563 1856 ft 173 kts 76°
2026-05-01 08:13 38.88840 1.43129 2357 ft 187 kts 75°
2026-05-01 08:13 38.89451 1.46656 3479 ft 215 kts 76°
2026-05-01 08:14 38.89749 1.48558 4254 ft 220 kts 76°
2026-05-01 08:14 38.90091 1.50494 5022 ft 225 kts 74°
2026-05-01 08:14 38.90469 1.52467 5764 ft 230 kts 74°
2026-05-01 08:14 38.90746 1.54500 6535 ft 235 kts 87°
2026-05-01 08:15 38.90637 1.56692 6931 ft 258 kts 96°
2026-05-01 08:15 38.90175 1.61597 8110 ft 287 kts 97°
2026-05-01 08:15 38.89922 1.64154 8992 ft 290 kts 98°
2026-05-01 08:16 38.89476 1.66684 9867 ft 292 kts 111°
2026-05-01 08:16 38.88653 1.69081 10611 ft 300 kts 116°
2026-05-01 08:16 38.87736 1.71598 10928 ft 321 kts 116°
2026-05-01 08:16 38.86781 1.74220 11621 ft 327 kts 115°
2026-05-01 08:17 38.85814 1.76883 12408 ft 331 kts 115°
2026-05-01 08:17 38.84838 1.79572 13196 ft 335 kts 115°
2026-05-01 08:17 38.83851 1.82289 13967 ft 338 kts 115°
2026-05-01 08:17 38.82854 1.85042 14627 ft 342 kts 115°
2026-05-01 08:18 38.81877 1.87845 15281 ft 347 kts 110°
2026-05-01 08:18 38.81270 1.94015 16547 ft 357 kts 84°
2026-05-01 08:19 38.82784 2.00133 17770 ft 367 kts 66°
2026-05-01 08:19 38.83807 2.03160 18364 ft 372 kts 66°
2026-05-01 08:19 38.84823 2.06181 18903 ft 376 kts 66°
2026-05-01 08:19 38.85863 2.09290 19412 ft 381 kts 67°
2026-05-01 08:20 38.86908 2.12431 19959 ft 384 kts 67°
2026-05-01 08:20 38.87964 2.15601 20515 ft 388 kts 66°
2026-05-01 08:20 38.89032 2.18802 21063 ft 392 kts 66°
2026-05-01 08:20 38.90110 2.22032 21605 ft 396 kts 66°
2026-05-01 08:21 38.91201 2.25293 22146 ft 399 kts 66°
2026-05-01 08:21 38.92299 2.28588 22683 ft 403 kts 66°
2026-05-01 08:21 38.93408 2.31913 23191 ft 408 kts 66°
2026-05-01 08:21 38.94528 2.35278 23708 ft 412 kts 66°
2026-05-01 08:22 38.95658 2.38677 24149 ft 416 kts 66°
2026-05-01 08:22 38.96795 2.42107 24585 ft 419 kts 66°
2026-05-01 08:22 38.97937 2.45563 25015 ft 422 kts 66°
2026-05-01 08:22 38.99087 2.49048 25438 ft 425 kts 67°
2026-05-01 08:23 38.99867 2.51416 25725 ft 427 kts 67°
2026-05-01 08:23 39.01014 2.54899 26131 ft 430 kts 67°
2026-05-01 08:23 39.02200 2.58499 26536 ft 433 kts 67°
2026-05-01 08:23 39.03379 2.62075 26928 ft 436 kts 67°
2026-05-01 08:24 39.04552 2.65628 27306 ft 439 kts 67°
2026-05-01 08:24 39.05761 2.69305 27665 ft 442 kts 67°
2026-05-01 08:24 39.06944 2.72912 28011 ft 446 kts 67°
2026-05-01 08:24 39.08149 2.76602 28372 ft 448 kts 67°
2026-05-01 08:25 39.09358 2.80313 28736 ft 451 kts 67°
2026-05-01 08:25 39.10574 2.84049 29110 ft 453 kts 68°
2026-05-01 08:25 39.11796 2.87805 29460 ft 456 kts 68°
2026-05-01 08:25 39.13022 2.91579 29815 ft 459 kts 68°
2026-05-01 08:26 39.14256 2.95378 30113 ft 461 kts 67°
2026-05-01 08:26 39.16933 3.02668 30167 ft 436 kts 63°
2026-05-01 08:27 39.19763 3.09500 30171 ft 431 kts 61°
2026-05-01 08:27 39.22565 3.16319 30174 ft 430 kts 62°
2026-05-01 08:28 39.25291 3.23193 30177 ft 430 kts 63°
2026-05-01 08:28 39.27988 3.30087 30177 ft 430 kts 63°
2026-05-01 08:29 39.30682 3.36981 30186 ft 430 kts 63°
2026-05-01 08:29 39.33381 3.43859 30192 ft 429 kts 63°
2026-05-01 08:30 39.36068 3.50723 30189 ft 428 kts 63°
2026-05-01 08:30 39.38744 3.57584 30186 ft 427 kts 63°
2026-05-01 08:31 39.41417 3.64443 30182 ft 427 kts 63°
2026-05-01 08:31 39.44090 3.71297 30182 ft 427 kts 63°
2026-05-01 08:32 39.46756 3.78160 30182 ft 426 kts 63°
2026-05-01 08:32 39.49403 3.85028 30168 ft 427 kts 63°
2026-05-01 08:33 39.52057 3.91913 30177 ft 427 kts 63°
2026-05-01 08:33 39.54700 3.98784 30193 ft 426 kts 63°
2026-05-01 08:34 39.57330 4.05647 30196 ft 425 kts 63°
2026-05-01 08:34 39.60393 4.12133 30202 ft 422 kts 46°
2026-05-01 08:34 39.62546 4.14691 30198 ft 419 kts 34°
2026-05-01 08:35 39.65026 4.16635 30193 ft 416 kts 22°
2026-05-01 08:35 39.67732 4.17908 30187 ft 412 kts 11°
2026-05-01 08:35 39.70546 4.18548 30183 ft 410 kts
2026-05-01 08:36 39.76157 4.19632 30182 ft 410 kts
2026-05-01 08:36 39.81803 4.20741 30188 ft 410 kts
2026-05-01 08:37 39.87441 4.21845 30192 ft 410 kts
2026-05-01 08:37 39.93058 4.23111 30190 ft 410 kts
2026-05-01 08:38 39.98665 4.24474 30198 ft 409 kts
2026-05-01 08:38 40.04258 4.25829 30202 ft 408 kts
2026-05-01 08:39 40.09840 4.27151 30203 ft 408 kts
2026-05-01 08:39 40.15422 4.28460 30200 ft 407 kts
2026-05-01 08:40 40.23778 4.30424 30206 ft 406 kts
2026-05-01 08:40 40.29339 4.31744 30204 ft 406 kts
2026-05-01 08:41 40.34891 4.33068 30206 ft 405 kts
2026-05-01 08:41 40.40445 4.34381 30208 ft 405 kts
2026-05-01 08:42 40.45995 4.35702 30204 ft 405 kts
2026-05-01 08:42 40.51548 4.37025 30203 ft 405 kts
2026-05-01 08:43 40.57099 4.38351 30198 ft 406 kts
2026-05-01 08:43 40.62653 4.39678 30200 ft 406 kts
2026-05-01 08:44 40.68211 4.41013 30207 ft 406 kts
2026-05-01 08:44 40.73765 4.42346 30207 ft 406 kts
2026-05-01 08:45 40.79318 4.43679 30204 ft 405 kts
2026-05-01 08:45 40.84870 4.45011 30215 ft 405 kts
2026-05-01 08:46 40.90419 4.46354 30216 ft 405 kts
2026-05-01 08:46 40.95967 4.47702 30213 ft 405 kts
2026-05-01 08:47 41.01473 4.49036 30212 ft 405 kts
2026-05-01 08:47 41.07012 4.50380 30225 ft 404 kts
2026-05-01 08:48 41.12544 4.51719 30226 ft 404 kts
2026-05-01 08:48 41.18065 4.53066 30228 ft 403 kts
2026-05-01 08:49 41.23584 4.54416 30224 ft 403 kts
2026-05-01 08:49 41.29097 4.55758 30239 ft 402 kts
2026-05-01 08:50 41.34581 4.57106 30241 ft 401 kts
2026-05-01 08:50 41.40064 4.58457 30253 ft 400 kts
2026-05-01 08:51 41.45526 4.59798 30259 ft 398 kts
2026-05-01 08:51 41.50972 4.61145 30264 ft 398 kts
2026-05-01 08:52 41.56407 4.62484 30263 ft 397 kts
2026-05-01 08:52 41.61836 4.63825 30262 ft 397 kts
2026-05-01 08:53 41.67261 4.65164 30261 ft 396 kts
2026-05-01 08:53 41.72662 4.66659 30264 ft 399 kts 14°
2026-05-01 08:54 41.77692 4.69934 30255 ft 404 kts 25°
2026-05-01 08:54 41.82596 4.73635 30252 ft 405 kts 25°
2026-05-01 08:55 41.87504 4.77323 30241 ft 404 kts 25°
2026-05-01 08:55 41.92413 4.81020 30247 ft 405 kts 25°
2026-05-01 08:56 41.97290 4.84712 30245 ft 405 kts 26°
2026-05-01 08:56 42.02210 4.88431 30249 ft 406 kts 25°
2026-05-01 08:57 42.07133 4.92158 30246 ft 406 kts 25°
2026-05-01 08:57 42.12052 4.95903 30270 ft 406 kts 25°
2026-05-01 08:58 42.16964 4.99642 30274 ft 405 kts 25°
2026-05-01 08:58 42.21868 5.03373 30269 ft 404 kts 26°
2026-05-01 08:59 42.26762 5.07107 30267 ft 404 kts 26°
2026-05-01 08:59 42.31651 5.10845 30272 ft 404 kts 25°
2026-05-01 09:00 42.36534 5.14589 30275 ft 403 kts 26°
2026-05-01 09:00 42.41412 5.18338 30276 ft 403 kts 26°
2026-05-01 09:01 42.46290 5.22095 30275 ft 403 kts 25°
2026-05-01 09:01 42.51170 5.25851 30284 ft 403 kts 26°
2026-05-01 09:02 42.56046 5.29608 30284 ft 403 kts 26°
2026-05-01 09:02 42.60920 5.33374 30287 ft 403 kts 26°
2026-05-01 09:03 42.65775 5.37140 30302 ft 401 kts 25°
2026-05-01 09:03 42.70233 5.41646 30306 ft 405 kts 38°
2026-05-01 09:04 42.74417 5.46854 30301 ft 405 kts 39°
2026-05-01 09:04 42.78538 5.51984 30298 ft 404 kts 39°
2026-05-01 09:05 42.82685 5.57144 30290 ft 404 kts 39°
2026-05-01 09:05 42.86823 5.62313 30285 ft 403 kts 39°
2026-05-01 09:06 42.90950 5.67494 30306 ft 403 kts 39°
2026-05-01 09:06 42.95068 5.72661 30313 ft 401 kts 39°
2026-05-01 09:07 42.99145 5.77847 30318 ft 401 kts 44°
2026-05-01 09:07 43.00784 5.80951 30317 ft 405 kts 56°
2026-05-01 09:07 43.02228 5.84259 30315 ft 405 kts 56°
2026-05-01 09:08 43.05097 5.90882 30307 ft 405 kts 56°
2026-05-01 09:08 43.07944 5.97521 30300 ft 404 kts 56°
2026-05-01 09:09 43.10781 6.04163 30297 ft 404 kts 56°
2026-05-01 09:09 43.13608 6.10811 30310 ft 404 kts 57°
2026-05-01 09:10 43.16425 6.17439 30324 ft 402 kts 57°
2026-05-01 09:10 43.18755 6.22923 30322 ft 400 kts 57°
2026-05-01 09:11 43.21548 6.29504 30324 ft 399 kts 56°
2026-05-01 09:11 43.24327 6.36083 30339 ft 398 kts 57°
2026-05-01 09:12 43.27095 6.42645 30338 ft 397 kts 56°
2026-05-01 09:12 43.29850 6.49205 30353 ft 396 kts 58°
2026-05-01 09:13 43.32592 6.55742 30344 ft 395 kts 57°
2026-05-01 09:13 43.35324 6.62269 30333 ft 394 kts 56°
2026-05-01 09:14 43.38047 6.68793 30327 ft 393 kts 57°
2026-05-01 09:14 43.40766 6.75316 30324 ft 393 kts 58°
2026-05-01 09:15 43.43483 6.81838 30317 ft 393 kts 56°
2026-05-01 09:15 43.46197 6.88367 30322 ft 393 kts 58°
2026-05-01 09:16 43.48896 6.94896 30326 ft 392 kts 59°
2026-05-01 09:17 43.52942 7.04692 30320 ft 392 kts 58°
2026-05-01 09:17 43.56952 7.14451 30318 ft 392 kts 59°
2026-05-01 09:18 43.60971 7.24257 30309 ft 391 kts 59°
2026-05-01 09:19 43.64983 7.34082 30307 ft 392 kts 59°
2026-05-01 09:20 43.68994 7.43931 30314 ft 392 kts 59°
2026-05-01 09:21 43.74332 7.57084 30323 ft 392 kts 59°
2026-05-01 09:21 43.78312 7.66950 30346 ft 390 kts 59°
2026-05-01 09:22 43.83589 7.80068 30339 ft 389 kts 59°
2026-05-01 09:23 43.87512 7.89863 30331 ft 389 kts 59°
2026-05-01 09:24 43.91444 7.99712 30350 ft 389 kts 59°
2026-05-01 09:25 43.96649 8.12791 30340 ft 386 kts 59°
2026-05-01 09:26 44.00526 8.22575 30340 ft 385 kts 59°
2026-05-01 09:26 44.04385 8.32352 30326 ft 385 kts 59°
2026-05-01 09:27 44.08224 8.42120 30367 ft 382 kts 59°
2026-05-01 09:28 44.10767 8.48600 30356 ft 381 kts 59°
2026-05-01 09:28 44.13301 8.55067 30358 ft 380 kts 59°
2026-05-01 09:29 44.17059 8.64722 30343 ft 379 kts 59°
2026-05-01 09:29 44.18485 8.67790 30338 ft 376 kts 47°
2026-05-01 09:30 44.22711 8.71944 30363 ft 372 kts 19°
2026-05-01 09:30 44.25190 8.72737 30369 ft 371 kts
2026-05-01 09:30 44.30323 8.72982 29530 ft 369 kts
2026-05-01 09:31 44.32898 8.73092 28799 ft 371 kts
2026-05-01 09:31 44.35481 8.73207 28073 ft 372 kts
2026-05-01 09:31 44.40686 8.73441 26643 ft 376 kts
2026-05-01 09:32 44.43302 8.73555 25925 ft 378 kts
2026-05-01 09:32 44.48588 8.73779 24444 ft 381 kts
2026-05-01 09:32 44.51241 8.73894 23793 ft 381 kts
2026-05-01 09:33 44.53881 8.74008 23161 ft 378 kts
2026-05-01 09:33 44.56500 8.74122 22577 ft 375 kts
2026-05-01 09:33 44.61666 8.74340 21187 ft 366 kts
2026-05-01 09:34 44.64141 8.74441 20934 ft 343 kts
2026-05-01 09:34 44.66445 8.74533 20693 ft 322 kts
2026-05-01 09:34 44.70813 8.74050 19462 ft 316 kts 348°
2026-05-01 09:35 44.72894 8.73045 18768 ft 315 kts 346°
2026-05-01 09:35 44.77087 8.71340 17288 ft 311 kts 349°
2026-05-01 09:35 44.79142 8.70584 16624 ft 308 kts 349°
2026-05-01 09:36 44.81204 8.69832 15965 ft 305 kts 349°
2026-05-01 09:36 44.83247 8.69077 15337 ft 302 kts 348°
2026-05-01 09:36 44.85267 8.68318 14721 ft 299 kts 348°
2026-05-01 09:36 44.87271 8.67554 14088 ft 297 kts 348°
2026-05-01 09:37 44.89263 8.66789 13391 ft 296 kts 347°
2026-05-01 09:37 44.93201 8.65262 12056 ft 292 kts 347°
2026-05-01 09:37 44.95152 8.64507 11405 ft 289 kts 347°
2026-05-01 09:38 44.98911 8.63050 10615 ft 268 kts 347°
2026-05-01 09:38 45.00699 8.62355 10145 ft 266 kts 346°
2026-05-01 09:38 45.02477 8.61665 9845 ft 264 kts 346°
2026-05-01 09:39 45.05981 8.60302 9193 ft 259 kts 346°
2026-05-01 09:39 45.07734 8.59854 8872 ft 254 kts
2026-05-01 09:39 45.09438 8.60343 8539 ft 249 kts 21°
2026-05-01 09:40 45.11059 8.61202 8165 ft 249 kts 21°
2026-05-01 09:40 45.14278 8.62931 7498 ft 245 kts 20°
2026-05-01 09:40 45.15839 8.63773 7348 ft 236 kts 20°
2026-05-01 09:41 45.17354 8.64593 6909 ft 232 kts 20°
2026-05-01 09:41 45.20351 8.66210 6235 ft 230 kts 20°
2026-05-01 09:41 45.21843 8.67014 5869 ft 229 kts 20°
2026-05-01 09:42 45.23328 8.67814 5502 ft 228 kts 20°
2026-05-01 09:42 45.24806 8.68613 5230 ft 225 kts 20°
2026-05-01 09:42 45.27748 8.70198 4922 ft 228 kts 20°
2026-05-01 09:43 45.30714 8.71797 4617 ft 227 kts 21°
2026-05-01 09:43 45.32186 8.72595 4457 ft 227 kts 21°
2026-05-01 09:43 45.33657 8.73394 4305 ft 227 kts 21°
2026-05-01 09:44 45.36602 8.74996 4039 ft 226 kts 22°
2026-05-01 09:44 45.38059 8.75790 3970 ft 219 kts 22°
2026-05-01 09:44 45.39429 8.76533 3974 ft 203 kts 21°
2026-05-01 09:45 45.40697 8.77220 3978 ft 189 kts 22°
2026-05-01 09:45 45.43121 8.78465 3986 ft 185 kts 11°
2026-05-01 09:45 45.44412 8.78406 4036 ft 189 kts 353°
2026-05-01 09:46 45.45717 8.78099 3898 ft 190 kts 351°
2026-05-01 09:46 45.47016 8.77753 3675 ft 190 kts 350°
2026-05-01 09:46 45.48317 8.77399 3427 ft 191 kts 351°
2026-05-01 09:46 45.49625 8.77040 3173 ft 192 kts 349°
2026-05-01 09:47 45.50941 8.76679 2914 ft 194 kts 350°
2026-05-01 09:47 45.52252 8.76318 2665 ft 190 kts 351°
2026-05-01 09:47 45.53535 8.75965 2392 ft 184 kts 351°
2026-05-01 09:47 45.54774 8.75624 2125 ft 176 kts 351°
2026-05-01 09:48 45.55932 8.75304 1894 ft 163 kts 352°
2026-05-01 09:48 45.57006 8.75008 1665 ft 153 kts 350°
2026-05-01 09:48 45.58046 8.74723 1459 ft 151 kts 351°
2026-05-01 09:48 45.59069 8.74441 1257 ft 149 kts 349°
2026-05-01 09:49 45.60082 8.74158 1044 ft 148 kts 351°
2026-05-01 09:49 45.61092 8.73879 853 ft 148 kts 350°
2026-05-01 09:49 45.62093 8.73603 741 ft 139 kts 351°
2026-05-01 09:49 45.62884 8.73388 739 ft 91 kts 349°
2026-05-01 09:50 45.63360 8.73257 739 ft 58 kts 349°
2026-05-01 09:50 45.63663 8.73123 742 ft 39 kts 328°
2026-05-01 09:50 45.63817 8.72908 741 ft 24 kts 304°
2026-05-01 09:50 45.63858 8.72828 741 ft 2 kts 311°
2026-05-01 09:51 45.63885 8.72805 741 ft 9 kts 340°
2026-05-01 09:51 45.63946 8.72786 739 ft 9 kts 351°
2026-05-01 09:51 45.64016 8.72768 740 ft 11 kts 349°
2026-05-01 09:51 45.64087 8.72748 739 ft 10 kts 349°
2026-05-01 09:52 45.64152 8.72730 740 ft 9 kts 349°
2026-05-01 09:52 45.64253 8.72702 741 ft 18 kts 349°
2026-05-01 09:52 45.64374 8.72677 740 ft 18 kts 357°
2026-05-01 09:52 45.64508 8.72651 740 ft 21 kts 349°
2026-05-01 09:53 45.64607 8.72625 739 ft 15 kts 349°
2026-05-01 09:53 45.64659 8.72601 739 ft 4 kts 310°
2026-05-01 09:53 45.64660 8.72543 740 ft 7 kts 259°
2026-05-01 09:53 45.64655 8.72507 740 ft 2 kts 259°
2026-05-01 09:54 45.64654 8.72500 740 ft 0 kts 259°